When you browse on this site, cookies collect data to enhance your experience and personalize the content and advertising you see.
Visit our Privacy Policy to learn more. By continuing to use the site, you agree to this use of cookies and data.
  • en Suisse
  • Liste des pays
  • À 7 jours
  • Température de l'eau
  • Carte météo
  • Widgets météo
  • user-avatar
    Se connecter

    Météo par heure à Spring Garden

    Ce jour, 25 Mai, Lundi

    Heure Température Précipitation Vent Pression Humidité
    00:00 +12°C° 0 mm 1 m/s 646 mmHg 60%
    01:00 +11°C° 0 mm 1 m/s 646 mmHg 61%
    02:00 +11°C° 0 mm 1 m/s 646 mmHg 62%
    03:00 +11°C° 0 mm 1 m/s 645 mmHg 62%
    04:00 +11°C° 0 mm 1 m/s 645 mmHg 63%
    05:00 +13°C° 0 mm 1 m/s 646 mmHg 57%
    06:00 +16°C° 0 mm 1 m/s 647 mmHg 52%
    07:00 +19°C° 0 mm 1 m/s 648 mmHg 46%
    08:00 +22°C° 0 mm 1 m/s 649 mmHg 40%
    09:00 +24°C° 0 mm 0 m/s 650 mmHg 35%
    10:00 +27°C° 0 mm 0 m/s 651 mmHg 29%
    11:00 +30°C° 0 mm 1 m/s 651 mmHg 28%
    12:00 +31°C° 0 mm 1 m/s 651 mmHg 26%
    13:00 +31°C° 0 mm 1 m/s 650 mmHg 25%
    14:00 +31°C° 0 mm 2 m/s 650 mmHg 28%
    15:00 +30°C° 0 mm 2 m/s 649 mmHg 30%
    16:00 +29°C° 0 mm 3 m/s 648 mmHg 32%
    17:00 +26°C° 0 mm 2 m/s 648 mmHg 44%
    18:00 +24°C° 0 mm 1 m/s 647 mmHg 55%
    19:00 +21°C° 0 mm 1 m/s 646 mmHg 67%
    20:00 +20°C° 0 mm 1 m/s 646 mmHg 70%
    21:00 +16°C° 0 mm 0 m/s 646 mmHg 74%
    22:00 +15°C° 0 mm 0 m/s 646 mmHg 78%
    23:00 +14°C° 0 mm 0 m/s 646 mmHg 78%

    Demain, 26 Mai, Mardi

    Heure Température Précipitation Vent Pression Humidité
    00:00 +14°C° 0 mm 0 m/s 646 mmHg 79%
    01:00 +14°C° 0 mm 0 m/s 646 mmHg 79%
    02:00 +13°C° 0 mm 0 m/s 646 mmHg 81%
    03:00 +13°C° 0 mm 0 m/s 646 mmHg 83%
    04:00 +14°C° 0 mm 1 m/s 645 mmHg 84%
    05:00 +15°C° 0 mm 0 m/s 646 mmHg 76%
    06:00 +18°C° 0 mm 0 m/s 647 mmHg 67%
    07:00 +20°C° 0 mm 0 m/s 648 mmHg 58%
    08:00 +25°C° 0 mm 1 m/s 649 mmHg 49%
    09:00 +27°C° 0 mm 1 m/s 650 mmHg 39%
    10:00 +29°C° 0 mm 2 m/s 650 mmHg 30%
    11:00 +30°C° 0 mm 3 m/s 650 mmHg 28%
    12:00 +30°C° 0 mm 3 m/s 650 mmHg 27%
    13:00 +32°C° 0 mm 4 m/s 649 mmHg 25%
    14:00 +30°C° 0 mm 4 m/s 649 mmHg 26%
    15:00 +29°C° 0 mm 4 m/s 648 mmHg 27%
    16:00 +29°C° 0 mm 4 m/s 648 mmHg 28%
    17:00 +26°C° 0 mm 3 m/s 648 mmHg 38%
    18:00 +23°C° 0 mm 2 m/s 647 mmHg 48%
    19:00 +21°C° 0 mm 1 m/s 647 mmHg 57%
    20:00 +20°C° 0 mm 1 m/s 647 mmHg 60%
    21:00 +19°C° 0 mm 1 m/s 647 mmHg 62%
    22:00 +18°C° 0 mm 1 m/s 647 mmHg 64%
    23:00 +16°C° 0 mm 1 m/s 647 mmHg 67%

    Après-demain, 27 Mai, Mercredi

    Heure Température Précipitation Vent Pression Humidité
    00:00 +15°C° 0 mm 0 m/s 647 mmHg 69%
    01:00 +14°C° 0 mm 0 m/s 646 mmHg 72%
    02:00 +15°C° 0 mm 1 m/s 646 mmHg 74%
    03:00 +15°C° 0 mm 1 m/s 646 mmHg 76%
    04:00 +15°C° 0 mm 1 m/s 646 mmHg 78%
    05:00 +18°C° 0 mm 1 m/s 647 mmHg 72%
    06:00 +20°C° 0 mm 1 m/s 648 mmHg 66%
    07:00 +22°C° 0 mm 1 m/s 649 mmHg 60%
    08:00 +24°C° 0 mm 1 m/s 649 mmHg 50%
    09:00 +27°C° 0 mm 2 m/s 650 mmHg 40%
    10:00 +29°C° 0 mm 3 m/s 650 mmHg 31%
    11:00 +29°C° 0 mm 3 m/s 650 mmHg 28%
    12:00 +30°C° 0 mm 4 m/s 650 mmHg 24%
    13:00 +32°C° 0 mm 4 m/s 650 mmHg 21%
    14:00 +30°C° 0 mm 4 m/s 649 mmHg 22%
    15:00 +30°C° 0 mm 4 m/s 649 mmHg 23%
    16:00 +29°C° 0 mm 4 m/s 648 mmHg 24%
    17:00 +27°C° 0 mm 3 m/s 648 mmHg 33%
    18:00 +24°C° 0 mm 2 m/s 647 mmHg 43%
    19:00 +21°C° 0 mm 1 m/s 646 mmHg 53%
    20:00 +20°C° 0 mm 1 m/s 647 mmHg 56%
    21:00 +18°C° 0 mm 1 m/s 647 mmHg 59%
    22:00 +16°C° 0 mm 1 m/s 647 mmHg 62%
    23:00 +15°C° 0 mm 1 m/s 646 mmHg 62%

    28 Mai, Jeudi

    Heure Température Précipitation Vent Pression Humidité
    00:00 +15°C° 0 mm 1 m/s 646 mmHg 63%
    01:00 +15°C° 0 mm 1 m/s 646 mmHg 63%
    02:00 +14°C° 0 mm 1 m/s 646 mmHg 61%
    03:00 +14°C° 0 mm 1 m/s 646 mmHg 60%
    04:00 +14°C° 0 mm 1 m/s 646 mmHg 58%
    05:00 +16°C° 0 mm 1 m/s 647 mmHg 51%
    06:00 +20°C° 0 mm 1 m/s 648 mmHg 45%
    07:00 +22°C° 0 mm 1 m/s 648 mmHg 38%
    08:00 +25°C° 0 mm 1 m/s 649 mmHg 31%
    09:00 +27°C° 0 mm 2 m/s 650 mmHg 25%
    10:00 +30°C° 0 mm 2 m/s 650 mmHg 18%
    11:00 +31°C° 0 mm 3 m/s 650 mmHg 17%
    12:00 +31°C° 0 mm 3 m/s 650 mmHg 17%
    13:00 +33°C° 0 mm 4 m/s 650 mmHg 16%
    14:00 +33°C° 0 mm 4 m/s 649 mmHg 17%
    15:00 +32°C° 0 mm 4 m/s 649 mmHg 18%
    16:00 +32°C° 0 mm 4 m/s 648 mmHg 19%
    17:00 +28°C° 0 mm 3 m/s 647 mmHg 27%
    18:00 +25°C° 0 mm 2 m/s 647 mmHg 36%
    19:00 +22°C° 0 mm 1 m/s 646 mmHg 44%
    20:00 +20°C° 0 mm 1 m/s 646 mmHg 45%
    21:00 +19°C° 0 mm 1 m/s 646 mmHg 47%
    22:00 +18°C° 0 mm 1 m/s 646 mmHg 48%
    23:00 +18°C° 0 mm 1 m/s 645 mmHg 48%

    29 Mai, Vendredi

    Heure Température Précipitation Vent Pression Humidité
    00:00 +16°C° 0 mm 1 m/s 645 mmHg 48%
    01:00 +16°C° 0 mm 1 m/s 645 mmHg 49%
    02:00 +16°C° 0 mm 1 m/s 645 mmHg 48%
    03:00 +16°C° 0 mm 1 m/s 645 mmHg 47%
    04:00 +15°C° 0 mm 1 m/s 645 mmHg 46%
    05:00 +19°C° 0 mm 1 m/s 646 mmHg 44%
    06:00 +21°C° 0 mm 1 m/s 646 mmHg 42%
    07:00 +21°C° 0 mm 0 m/s 647 mmHg 41%
    08:00 +25°C° 0 mm 1 m/s 647 mmHg 36%
    09:00 +28°C° 0 mm 1 m/s 648 mmHg 32%
    10:00 +30°C° 0 mm 1 m/s 648 mmHg 28%
    11:00 +31°C° 0 mm 1 m/s 648 mmHg 25%
    12:00 +32°C° 0 mm 2 m/s 648 mmHg 22%
    13:00 +35°C° 0 mm 3 m/s 648 mmHg 18%
    14:00 +34°C° 0 mm 3 m/s 648 mmHg 20%
    15:00 +33°C° 0 mm 4 m/s 647 mmHg 23%
    16:00 +32°C° 0 mm 4 m/s 646 mmHg 25%
    17:00 +28°C° 0 mm 3 m/s 646 mmHg 36%
    18:00 +25°C° 0 mm 2 m/s 645 mmHg 48%
    19:00 +22°C° 0 mm 1 m/s 645 mmHg 60%
    20:00 +21°C° 0 mm 1 m/s 645 mmHg 65%
    21:00 +20°C° 0 mm 1 m/s 644 mmHg 70%
    22:00 +17°C° 0 mm 0 m/s 644 mmHg 75%
    23:00 +16°C° 0 mm 0 m/s 644 mmHg 75%

    30 Mai, Samedi

    Heure Température Précipitation Vent Pression Humidité
    00:00 +16°C° 0 mm 0 m/s 644 mmHg 75%
    01:00 +16°C° 0 mm 0 m/s 644 mmHg 75%
    02:00 +15°C° 0 mm 0 m/s 643 mmHg 75%
    03:00 +15°C° 0 mm 0 m/s 643 mmHg 76%
    04:00 +15°C° 0 mm 1 m/s 643 mmHg 76%
    05:00 +16°C° 0 mm 0 m/s 643 mmHg 70%
    06:00 +18°C° 0 mm 0 m/s 644 mmHg 64%
    07:00 +20°C° 0 mm 0 m/s 644 mmHg 58%
    08:00 +23°C° 0 mm 0 m/s 645 mmHg 49%
    09:00 +27°C° 0 mm 1 m/s 645 mmHg 41%
    10:00 +30°C° 0 mm 1 m/s 646 mmHg 32%
    11:00 +30°C° 0 mm 2 m/s 645 mmHg 32%
    12:00 +31°C° 0 mm 2 m/s 645 mmHg 32%
    13:00 +31°C° 0 mm 3 m/s 644 mmHg 32%
    14:00 +28°C° 0.1 mm 3 m/s 643 mmHg 38%
    15:00 +26°C° 0.1 mm 4 m/s 642 mmHg 43%
    16:00 +23°C° 0.1 mm 4 m/s 641 mmHg 49%
    17:00 +21°C° 0.1 mm 3 m/s 641 mmHg 52%
    18:00 +19°C° 0.1 mm 2 m/s 641 mmHg 56%
    19:00 +17°C° 0.1 mm 2 m/s 641 mmHg 60%
    20:00 +15°C° 0.2 mm 1 m/s 641 mmHg 71%
    21:00 +14°C° 0.2 mm 1 m/s 641 mmHg 81%
    22:00 +12°C° 0.2 mm 1 m/s 641 mmHg 92%
    23:00 +11°C° 0.2 mm 1 m/s 641 mmHg 94%
    Voir plus